P/2003 SQ215 (NEAT-LONEOS)                                            

Epoch 2004 Mar. 16.0 TT = JDT 2453080.5  

T 2004 Mar. 24.21302 TT                                 Nakano

q   2.3043197            (2000.0)            P               Q

n   0.07623300     Peri.  137.30545     +0.81666634     -0.56933634

a   5.5085933      Node   257.63307     +0.49999461     +0.77970102

e   0.5816864      Incl.    5.54613     +0.28820388     +0.26061938

P  12.93 (+/- 0.47 day)

From 48 observations 2003 Sept. 18-2004 Feb. 20, mean residual 0".72.

Residuals in seconds of arc 

2003/                     031213 704  0.1-  0.5-    040119 809  0.5-  0.5+  

030918 644  0.1-  1.0+    031213 704  0.4-  0.2+    040119 809  0.3-  0.6+  

030918 644  0.2+  1.2+    031222 704  0.8-  0.9-    040119 809  0.4-  0.6+  

030918 644  0.3-  1.0+    031222 704  0.7+  0.2-    040119 809  0.6-  0.6+  

030924 644  0.4-  0.6+    031222 704  0.7-  0.1-    040119 809  0.2-  0.6+  

030924 644  0.8-  0.4+    031222 704  0.5+  0.7-    040119 809  0.4-  0.6+  

030924 644  0.5-  0.3+    031222 704  1.2+  1.6-    040119 809  0.4-  0.6+  

030927 699  1.7+  0.2-    2004/                     040119 809  0.2-  0.5+  

030927 699  0.9+  0.9-    040109 699  0.9+  0.5-    040119 809  0.5-  0.6+  

030927 699  0.3-  1.6-    040109 699  1.7+  0.0     040119 809  0.4-  0.5+  

030927 699  0.9-  1.6-    040109 699 (2.4+  1.7+)   040119 809  0.4-  0.5+  

031123 703 (0.3-  4.9-)   040109 699  0.3-  0.3+    040119 620  0.4+  0.5-  

031123 703  1.2+  0.5+    040117 620  0.9+  0.1-    040119 620  1.0+  0.4+  

031123 703  1.0+  0.3-    040117 620  0.0   0.7-    040205 204  0.3-  1.3-  

031123 703 (0.6+  3.0-)   040119 809  1.0-  0.4+    040205 204  0.0   0.5-  

031213 704  0.5-  0.1-    040119 809  0.6-  0.5+    040218 A33  1.2+  1.8-  

031213 704  0.2-  0.0     040119 809  0.6-  0.3+    040220 A33  0.5+  1.0+  

031213 704  0.1-  0.6-    040119 809  0.4-  0.4+                            



NAKANO

         **** Don't distribute anyone except personal use only ****

                (C) Copyright 2005 OAA/ComputingSection

write mail from CFAD0::NAKANO on 2005-03-05 03:18:44(JST).

 



   C/2003 SQ215 (NEAT-LONEOS)                                            

Epoch 2004 Mar. 16.0 TT = JDT 2453080.5  

T 2004 Mar. 24.22921 TT                                 Nakano

q   2.3042257            (2000.0)            P               Q

n   0.07635466     Peri.  137.30286     +0.81661726     -0.56940682

a   5.5027403      Node   257.64057     +0.50005826     +0.77965433

e   0.5812585      Incl.    5.54594     +0.28823252     +0.26060504

P  12.91 (+/- 0.56 day)

From 43 observations 2003 Sept. 18-2004 Jan. 19, mean residual 0".65.



NAKANO

         **** Don't distribute anyone except personal use only ****

                (C) Copyright 2004 OAA/ComputingSection

write mail from CFAD0::NAKANO on 2004-02-22 01:35:38(JST).

 

◎P/2003 SQ215の軌道と予報位置です

 

  これからの彗星の観測は,ちょっとしんどいでしょう.

 

    C/2003 SQ215 (NEAT-LONEOS)                                            

Epoch 2004 Mar. 16.0 TT = JDT 2453080.5  

T 2004 Mar. 24.22921 TT                                 Nakano

q   2.3042257            (2000.0)            P               Q

n   0.07635466     Peri.  137.30286     +0.81661726     -0.56940682

a   5.5027403      Node   257.64057     +0.50005826     +0.77965433

e   0.5812585      Incl.    5.54594     +0.28823252     +0.26060504

P  12.91 (+/- 0.56 day)

From 43 observations 2003 Sept. 18-2004 Jan. 19, mean residual 0".65.

 

Date/        TT  R.A.(2000) Decl.     Delta   r     Daily motion  Mag.  Moon Age

              h    h  m       。  ,                      ,  / PA 。  m1      。

2004 Jan. 20 10  23 28.46  +01 11.6   2.814  2.369    27.8 /  70  18.5   74  .03

          21 10  23 30.21  +01 21.2   2.822  2.367    28.0 /  70  18.5   60  .00

          22 10  23 31.96  +01 30.8   2.829  2.365    28.1 /  70  18.5   46  .01

          23 10  23 33.72  +01 40.4   2.837  2.363    28.2 /  70  18.5   33  .03

          24 10  23 35.49  +01 50.2   2.844  2.361    28.3 /  70  18.5   20  .08

          25 10  23 37.26  +01 59.9   2.852  2.359    28.5 /  70  18.5   10  .15

          26 10  23 39.04  +02 09.8   2.859  2.357    28.6 /  70  18.5   11  .23

          27 10  23 40.83  +02 19.7   2.866  2.356    28.7 /  70  18.5   21  .33

          28 10  23 42.63  +02 29.7   2.873  2.354    28.8 /  70  18.5   32  .42

          29 10  23 44.43  +02 39.7   2.881  2.352    28.9 /  70  18.5   43  .52

          30 10  23 46.24  +02 49.8   2.888  2.350    29.0 /  70  18.5   54  .61

          31 10  23 48.05  +02 59.9   2.895  2.349    29.1 /  70  18.5   66  .70

     Feb.  1 10  23 49.87  +03 10.1   2.902  2.347    29.2 /  69  18.5   77  .78

           2 10  23 51.70  +03 20.4   2.909  2.345    29.3 /  69  18.5   88  .85

           3 10  23 53.53  +03 30.7   2.916  2.344    29.4 /  69  18.5  100  .91

           4 10  23 55.37  +03 41.0   2.923  2.342    29.5 /  69  18.5  111  .96

           5 10  23 57.22  +03 51.4   2.929  2.341    29.6 /  69  18.5  123  .99

           6 10  23 59.07  +04 01.8   2.936  2.339    29.7 /  69  18.5  135 1.00

           7 10  00 00.93  +04 12.3   2.943  2.338    29.8 /  69  18.5  147  .99

           8 10  00 02.79  +04 22.8   2.950  2.336    29.9 /  69  18.5  160  .95

           9 10  00 04.66  +04 33.3   2.956  2.335    30.0 /  69  18.5  170  .90

          10 10  00 06.54  +04 43.9   2.963  2.334    30.0 /  69  18.5  170  .82

          11 10  00 08.42  +04 54.5   2.969  2.332    30.1 /  69  18.5  159  .73

          12 10  00 10.30  +05 05.1   2.976  2.331    30.2 /  69  18.5  146  .63

          13 10  00 12.19  +05 15.8   2.982  2.330    30.3 /  69  18.5  133  .52

          14 10  00 14.09  +05 26.5   2.989  2.328    30.4 /  69  18.5  119  .40

          15 10  00 16.00  +05 37.3   2.995  2.327    30.5 /  69  18.6  106  .29

NAKANO

         **** Don't distribute anyone except personal use only ****

                (C) Copyright 2004 OAA/ComputingSection

write mail from CFAD0::NAKANO on 2004-01-25 00:50:18(JST).

 

戻ります。